Startpagina
METAR-TAF:

METAR-TAF

Vliegvelden :

Torrington Municipal Airport

Torrington, Wyoming, Verenigde Staten

breedte: 42-03-53N, lengte: 104-09-10W, hoogte: 1282 m

Actueel weer

Dit bericht is 20 minuten geleden gemaakt, om 17:53 UTC
Weinig wind
Temperatuur -11°C
Vochtigheid 92%
Druk 1019 hPa
Zicht: 16.1 km
Onbewolkt

METAR: KTOR 181753Z AUTO 00000KT 10SM CLR M11/M12 A3008 RMK AO2 SLP264 I1002 I6005 T11111122 11100 21228 58017 $

Tijdstip: 11:13 (18:13 UTC)


TAF: ontbreekt

Waarnemingen en weersverwachtingen van meer dan 4000 vliegvelden (METAR en TAF).

De beschikbare stations zijn de gele en rode punten op de kaart.

Ga met uw muis naar het station om de naam te zien.

Klik dan om waarnemingen en weersverwachtingen te zien.

kaart wijzigen: klik op de groene knoppen met een zwart kruis om in te zoomen, op de groene knop met een streepje om uit te zoomen of op de groene pijlen voor aangrenzende kaarten.


METAR-TAF: